[[{"header":{"parameterUnit":"m.s-1","parameterCategory":1,"la1":30.2991,"la2":30.254,"lo1":-89.0895,"lo2":-89.0444,"dy":0.0017,"dx":0.0017,"nx":28,"ny":28,"refTime":"2024-10-15T21:00:00:Z","depth":0,"parameterNumber":2,"parameterNumberName":"U-component_of_WINDS"},"data":[0,0,0,0,0,0,0,0,0,0,0,0,0,0,0,0,0,0,0,0,0,0,0,0,0,0,0,0,0,0,0,0,0,0,0,0,0,0,0,0,0,0,0,0,0,0,0,0,0,0,0,0,0,0,0,0,0,0,-4.9329,-4.933,0,-4.9369,-4.9369,-4.937,-4.9274,-4.9271,-4.9268,-4.9265,-4.9305,-4.9308,-4.9312,0,0,0,0,0,0,0,0,0,0,0,0,0,-4.9169,-4.9173,-4.9329,-4.933,-4.933,-4.9369,-4.9369,-4.937,-4.9275,-4.9271,-4.9267,-4.9264,-4.9303,-4.9308,-4.9312,0,0,0,0,0,0,0,0,0,0,0,0,0,-4.9227,-4.9174,-4.9329,-4.9287,-4.9284,-4.9369,-4.9369,-4.937,-4.9275,-4.9271,-4.9266,-4.9262,-4.9302,-4.9307,-4.9313,-4.944,0,0,-4.9331,-4.9333,0,0,0,0,0,0,0,0,-4.9224,-4.9233,-4.9293,-4.929,-4.9287,-4.9312,-4.9327,-4.9393,-4.9277,-4.9279,-4.9265,-4.926,-4.9311,-4.9315,-4.9333,-4.9441,-4.9443,-4.9331,-4.9335,-4.9337,-4.9339,0,0,0,0,0,0,0,-4.922,-4.9231,-4.9345,-4.9294,-4.929,-4.9266,-4.9269,-4.9339,-4.932,-4.9278,-4.9271,-4.9277,-4.9308,-4.9327,-4.9333,-4.9444,-4.9331,-4.9336,-4.934,-4.9342,-4.9658,-4.9663,0,0,0,0,0,0,-4.9221,-4.9228,-4.9344,-4.9346,-4.9243,-4.9273,-4.9276,-4.9308,-4.9319,-4.9316,-4.9281,-4.9273,-4.932,-4.9326,-4.9334,-4.9483,-4.9337,-4.9343,-4.9346,-4.9654,-4.9659,-4.9665,0,0,0,0,0,0,-4.9218,-4.9233,-4.9342,-4.9285,-4.9297,-4.928,-4.9317,-4.9312,-4.9331,-4.9321,-4.9317,-4.9305,-4.9316,-4.9326,-4.9414,-4.9483,-4.9345,-4.9351,-4.9648,-4.9655,-4.9662,-4.9783,0,0,0,0,0,0,-4.9214,-4.9232,-4.9281,-4.9287,-4.9301,-4.9423,-4.9321,-4.9316,-4.9341,-4.9331,-4.9342,-4.9339,-4.9314,-4.9406,-4.942,-4.9489,-4.9355,-4.9641,-4.9651,-4.966,-4.9773,-4.9794,-4.9811,0,0,0,0,0,-4.9209,-4.9313,-4.9283,-4.9298,-4.9361,-4.9427,-4.9434,-4.9403,-4.9347,-4.9396,-4.9389,-4.9339,-4.9473,-4.9416,-4.9431,-4.9502,-4.9637,-4.9648,-4.9659,-4.9764,-4.979,-4.9811,0,0,0,0,0,0,-4.9314,-4.9313,-4.928,-4.9389,-4.9409,-4.941,-4.947,-4.9431,-4.9466,-4.9455,-4.9414,-4.9417,-4.9513,-4.9516,-4.9452,-4.9625,-4.9546,-4.956,-4.962,-4.9644,-4.9663,-4.9661,-4.936,0,0,0,0,0,-4.935,-4.9404,-4.94,-4.9496,-4.9508,-4.9488,-4.9515,-4.9489,-4.9508,-4.9515,-4.9515,-4.9535,-4.9581,-4.9613,-4.9655,-4.9772,-4.9773,-4.9829,-4.9848,-4.9864,-4.9877,-4.994,-4.9965,-4.9701,-4.9701,-4.9701,0,0,-4.9425,-4.9431,-4.9467,-4.9518,-4.953,-4.9587,-4.9495,-4.9559,-4.9601,-4.9525,-4.9609,-4.961,-4.9628,-4.9732,-4.9778,-4.9738,-4.995,-4.9878,-4.9891,-4.9896,-4.9954,-4.9979,-5.0001,-4.9709,-4.9707,-4.9706,0,0,-4.9591,-4.96,-4.9682,-4.9696,-4.9716,-4.9702,-4.9722,-4.9729,-4.9727,-4.9811,-4.9755,-4.9803,-4.9884,-4.99,-4.9919,-5.0091,-5.0046,-5.0105,-5.0207,-5.0268,-5.0289,-5.0307,-5.0369,-5.0392,-5.0118,-5.0119,-5.0119,0,-4.9681,-4.9765,-4.9729,-4.9797,-4.9821,-4.9755,-4.9838,-4.9853,-4.9885,-4.9903,-4.9857,-4.9958,-4.9966,-5.0073,-5.0115,-5.0132,-5.0153,-5.0104,-5.0289,-5.0307,-5.0324,-5.0382,-5.0406,-5.0126,-5.0125,-5.0124,-5.0124,0,-4.9876,-4.9935,-4.9998,-5.0032,-5.0063,-5.0138,-5.0113,-5.0148,-5.012,-5.011,-5.0196,-5.0203,-5.0246,-5.0269,-5.0241,-5.0372,-5.0347,-5.0296,-5.0215,-5.0357,-5.0411,-5.0433,-5.0136,-5.0134,-5.0131,-5.013,0,0,-5.011,-5.0123,-5.0147,-5.0162,-5.0178,-5.0223,-5.0295,-5.0337,-5.0368,-5.0393,-5.0452,-5.0522,-5.0475,-5.0496,-5.0469,-5.0523,-5.066,-5.0466,-5.0465,-5.0502,-5.0805,-5.0844,-5.0871,-5.063,-5.0634,-5.0637,-5.0804,0,-5.0274,-5.0399,-5.0368,-5.0491,-5.0545,-5.0483,-5.0546,-5.0563,-5.0556,-5.06,-5.0591,-5.0642,-5.0576,-5.0589,-5.0639,-5.0633,-5.072,-5.062,-5.0685,-5.0688,-5.0683,-5.0899,-5.0941,-5.1098,-5.0825,-5.0828,-5.0831,0,-5.0483,-5.0516,-5.0645,-5.0653,-5.0675,-5.0732,-5.0768,-5.0811,-5.0829,-5.082,-5.0844,-5.0807,-5.0877,-5.0795,-5.0891,-5.0824,-5.0848,-5.0849,-5.0854,-5.086,-5.0769,-5.0912,-5.1147,-5.1171,-5.0864,-5.0861,-5.0859,0,-5.0642,-5.0719,-5.0806,-5.082,-5.0832,-5.0874,-5.088,-5.0893,-5.0921,-5.0952,-5.0969,-5.1008,-5.103,-5.1061,-5.1035,-5.0977,-5.1136,-5.1051,-5.113,-5.1131,-5.1168,-5.1166,-5.1411,-5.1182,-5.1182,-5.1181,-5.1181,0,-5.083,-5.0912,-5.0878,-5.0932,-5.1021,-5.0985,-5.1074,-5.1073,-5.1085,-5.1137,-5.1085,-5.1135,-5.1097,-5.1144,-5.1123,-5.1207,-5.1216,-5.1211,-5.1205,-5.1217,-5.1218,-5.1233,-5.1222,-5.1187,-5.1186,-5.1185,-5.1184,0,-5.1024,-5.1004,-5.1095,-5.1099,-5.1102,-5.1168,-5.117,-5.122,-5.1208,-5.1275,-5.1288,-5.1271,-5.1323,-5.13,-5.1354,-5.134,-5.1448,-5.1426,-5.1443,-5.1437,-5.1518,-5.1512,-5.1783,-5.1817,-5.1565,-5.1568,-5.157,0,-5.1146,-5.1207,-5.1217,-5.1249,-5.1259,-5.131,-5.1338,-5.1305,-5.1336,-5.1361,-5.1407,-5.1455,-5.1491,-5.1577,-5.1569,-5.161,-5.159,-5.1682,-5.1596,-5.1606,-5.1592,-5.159,-5.1596,-5.17,-5.1703,-5.1705,-5.1707,0,-5.1364,-5.1351,-5.1394,-5.1434,-5.1469,-5.1498,-5.1523,-5.1551,-5.1519,-5.1556,-5.1609,-5.1637,-5.1693,-5.1741,-5.1777,-5.1783,-5.1741,-5.1734,-5.1755,-5.1768,-5.1775,-5.1774,-5.1491,-5.1729,-5.1726,-5.1725,-5.1724,-5.1723,-5.1526,-5.1578,-5.1594,-5.1643,-5.1658,-5.1682,-5.1729,-5.1724,-5.1768,-5.1811,-5.1788,-5.185,-5.1865,-5.191,-5.1921,-5.1969,-5.1932,-5.1962,-5.197,-5.1978,-5.1989,-5.1767,-5.1975,-5.1974,-5.1974,-5.1973,-5.1973,0,-5.1743,-5.175,-5.1795,-5.1832,-5.1871,-5.1827,-5.1852,-5.1887,-5.1943,-5.1961,-5.1998,-5.2059,-5.2105,-5.21,-5.2142,-5.2181,-5.2163,-5.2194,-5.2191,-5.2193,-5.2019,-5.1997,-5.2208,-5.2208,-5.2208,-5.2208,-5.2208,-5.2208,-5.186,-5.1946,-5.1935,-5.2028,-5.2033,-5.2094,-5.2112,-5.2134,-5.2149,-5.2219,-5.2258,-5.2255,-5.2264,-5.2306,-5.2346,-5.2344,-5.2362,-5.2401,-5.2391,-5.2229,-5.2205,-5.2183,-5.2163,-5.2405,-5.2405,-5.2561,-5.2562,-5.2564]},{"header":{"parameterUnit":"m.s-1","parameterCategory":1,"la1":30.2991,"la2":30.254,"lo1":-89.0895,"lo2":-89.0444,"dy":0.0017,"dx":0.0017,"nx":28,"ny":28,"refTime":"2024-10-15T21:00:00:Z","depth":0,"parameterNumber":3,"parameterNumberName":"V-component_of_WINDS"},"data":[0,0,0,0,0,0,0,0,0,0,0,0,0,0,0,0,0,0,0,0,0,0,0,0,0,0,0,0,0,0,0,0,0,0,0,0,0,0,0,0,0,0,0,0,0,0,0,0,0,0,0,0,0,0,0,0,0,0,-7.6861,-7.6862,0,-7.6918,-7.6919,-7.692,-7.6833,-7.683,-7.6827,-7.6824,-7.6877,-7.6881,-7.6886,0,0,0,0,0,0,0,0,0,0,0,0,0,-7.6672,-7.6676,-7.6861,-7.6862,-7.6863,-7.6918,-7.6919,-7.692,-7.6834,-7.683,-7.6826,-7.6823,-7.6876,-7.6881,-7.6886,0,0,0,0,0,0,0,0,0,0,0,0,0,-7.6744,-7.6677,-7.6861,-7.6827,-7.6824,-7.6918,-7.6919,-7.692,-7.6834,-7.683,-7.6825,-7.6821,-7.6874,-7.688,-7.6887,-7.7015,0,0,-7.6906,-7.6909,0,0,0,0,0,0,0,0,-7.674,-7.6751,-7.6831,-7.6829,-7.6827,-7.6864,-7.6872,-7.6952,-7.6836,-7.683,-7.6824,-7.6819,-7.6876,-7.6882,-7.6902,-7.7018,-7.702,-7.6906,-7.691,-7.6913,-7.6915,0,0,0,0,0,0,0,-7.6735,-7.6748,-7.6884,-7.6832,-7.683,-7.6806,-7.6812,-7.6886,-7.6878,-7.683,-7.6824,-7.6833,-7.6874,-7.6897,-7.6903,-7.7021,-7.6906,-7.6912,-7.6916,-7.6918,-7.7244,-7.7249,0,0,0,0,0,0,-7.6735,-7.6745,-7.6882,-7.6885,-7.6772,-7.6813,-7.6819,-7.6856,-7.6877,-7.6875,-7.6836,-7.6828,-7.6888,-7.6896,-7.6905,-7.7056,-7.6913,-7.6919,-7.6922,-7.7239,-7.7245,-7.725,0,0,0,0,0,0,-7.6732,-7.6748,-7.6879,-7.6813,-7.6828,-7.6822,-7.6864,-7.686,-7.6882,-7.6881,-7.6878,-7.6861,-7.6885,-7.6896,-7.6989,-7.7057,-7.6922,-7.6927,-7.7233,-7.7241,-7.7248,-7.7362,0,0,0,0,0,0,-7.6727,-7.6748,-7.6798,-7.6815,-7.6832,-7.6965,-7.6868,-7.6864,-7.6894,-7.6884,-7.6904,-7.6903,-7.6882,-7.698,-7.6995,-7.7063,-7.6932,-7.7227,-7.7237,-7.7245,-7.7352,-7.7372,-7.7389,0,0,0,0,0,-7.672,-7.6827,-7.6801,-7.6818,-7.6895,-7.6969,-7.6978,-7.6954,-7.69,-7.695,-7.6949,-7.6902,-7.7047,-7.699,-7.7006,-7.7078,-7.7223,-7.7234,-7.7245,-7.7343,-7.7368,-7.7389,0,0,0,0,0,0,-7.6815,-7.6828,-7.68,-7.6916,-7.6942,-7.6954,-7.7016,-7.6981,-7.7022,-7.7011,-7.6977,-7.6982,-7.7082,-7.7089,-7.7025,-7.7203,-7.7126,-7.714,-7.7195,-7.7218,-7.7237,-7.7233,-7.6938,0,0,0,0,0,-7.685,-7.6911,-7.6918,-7.7019,-7.7034,-7.7023,-7.7054,-7.7033,-7.7059,-7.7069,-7.7074,-7.7099,-7.715,-7.7185,-7.7231,-7.7352,-7.7355,-7.7409,-7.7428,-7.7443,-7.7456,-7.752,-7.7544,-7.7286,-7.7286,-7.7286,0,0,-7.6922,-7.6936,-7.6976,-7.7039,-7.7057,-7.7119,-7.7033,-7.7102,-7.7147,-7.7079,-7.7167,-7.7173,-7.7198,-7.7305,-7.7353,-7.7314,-7.7528,-7.7457,-7.747,-7.7474,-7.7534,-7.7558,-7.758,-7.7294,-7.7292,-7.7291,0,0,-7.7085,-7.7102,-7.7189,-7.7209,-7.7238,-7.723,-7.7251,-7.7269,-7.727,-7.7359,-7.7309,-7.7361,-7.745,-7.747,-7.7492,-7.7662,-7.7621,-7.7678,-7.7776,-7.7839,-7.7859,-7.7877,-7.7937,-7.796,-7.7691,-7.7692,-7.7692,0,-7.717,-7.7263,-7.7237,-7.731,-7.7338,-7.7281,-7.7367,-7.7387,-7.743,-7.745,-7.7406,-7.7517,-7.7529,-7.7641,-7.7682,-7.7702,-7.7724,-7.7676,-7.7859,-7.7876,-7.7892,-7.795,-7.7973,-7.7698,-7.7698,-7.7697,-7.7696,0,-7.7366,-7.7431,-7.7497,-7.7542,-7.7577,-7.7657,-7.7641,-7.7679,-7.7655,-7.7652,-7.7742,-7.7756,-7.7804,-7.7829,-7.7805,-7.7937,-7.7912,-7.7864,-7.7786,-7.7924,-7.7978,-7.7999,-7.7708,-7.7706,-7.7704,-7.7702,0,0,-7.759,-7.762,-7.7645,-7.7664,-7.7692,-7.7741,-7.7817,-7.7866,-7.79,-7.7931,-7.7993,-7.807,-7.8026,-7.8051,-7.8028,-7.8083,-7.8217,-7.8028,-7.8028,-7.8063,-7.8363,-7.8399,-7.8425,-7.819,-7.8194,-7.8197,-7.836,0,-7.7752,-7.7886,-7.7865,-7.7993,-7.8053,-7.7999,-7.8065,-7.8088,-7.8087,-7.8135,-7.8132,-7.8187,-7.8125,-7.814,-7.8192,-7.819,-7.8277,-7.8178,-7.8246,-7.8249,-7.8242,-7.8453,-7.8491,-7.8644,-7.8381,-7.8385,-7.8387,0,-7.796,-7.8001,-7.8136,-7.8155,-7.8179,-7.8239,-7.8282,-7.833,-7.8355,-7.8349,-7.8378,-7.8346,-7.8419,-7.834,-7.8441,-7.8374,-7.84,-7.8404,-7.8409,-7.8415,-7.8327,-7.8463,-7.8693,-7.8716,-7.842,-7.8417,-7.8415,0,-7.811,-7.8198,-7.8291,-7.8309,-7.8333,-7.8377,-7.8388,-7.8409,-7.844,-7.8477,-7.8497,-7.8541,-7.8566,-7.86,-7.858,-7.8525,-7.8684,-7.8604,-7.8681,-7.8682,-7.8717,-7.8715,-7.8954,-7.8735,-7.8734,-7.8734,-7.8733,0,-7.8293,-7.8378,-7.8359,-7.8416,-7.8508,-7.8482,-7.8574,-7.8579,-7.8598,-7.8653,-7.8608,-7.8661,-7.8631,-7.8681,-7.8666,-7.8751,-7.8762,-7.8759,-7.8754,-7.8763,-7.8764,-7.878,-7.8769,-7.874,-7.8738,-7.8737,-7.8736,0,-7.8477,-7.8467,-7.8565,-7.858,-7.8586,-7.8654,-7.8666,-7.8718,-7.8713,-7.8784,-7.8799,-7.879,-7.8846,-7.883,-7.889,-7.888,-7.8988,-7.8969,-7.8981,-7.8976,-7.9055,-7.9048,-7.9312,-7.9345,-7.9105,-7.9107,-7.9109,0,-7.8595,-7.8659,-7.8682,-7.8717,-7.8733,-7.879,-7.8822,-7.8798,-7.8832,-7.8865,-7.8913,-7.8966,-7.9007,-7.9099,-7.9097,-7.9143,-7.9125,-7.9214,-7.9131,-7.9139,-7.9126,-7.9123,-7.9129,-7.9231,-7.9234,-7.9236,-7.9238,0,-7.8805,-7.8797,-7.8846,-7.8894,-7.8934,-7.897,-7.9001,-7.9032,-7.901,-7.9051,-7.9109,-7.9141,-7.9203,-7.9256,-7.9297,-7.9307,-7.9269,-7.9264,-7.9284,-7.9295,-7.9299,-7.9297,-7.9026,-7.9258,-7.9256,-7.9255,-7.9253,-7.9253,-7.8959,-7.9014,-7.9039,-7.9095,-7.9117,-7.9147,-7.9197,-7.9199,-7.9248,-7.9298,-7.928,-7.9347,-7.9368,-7.9421,-7.9436,-7.9486,-7.9452,-7.9481,-7.9489,-7.9497,-7.9507,-7.9291,-7.9494,-7.9493,-7.9493,-7.9492,-7.9492,0,-7.9167,-7.9181,-7.9233,-7.9279,-7.9323,-7.9285,-7.9317,-7.9356,-7.9416,-7.9441,-7.9482,-7.9549,-7.9599,-7.9602,-7.9649,-7.9689,-7.9672,-7.9702,-7.9699,-7.9701,-7.9535,-7.9513,-7.9714,-7.9714,-7.9714,-7.9714,-7.9714,-7.9714,-7.9281,-7.9372,-7.9367,-7.9467,-7.9479,-7.9546,-7.9568,-7.9595,-7.9614,-7.9691,-7.9734,-7.9736,-7.9751,-7.9799,-7.9843,-7.9843,-7.9862,-7.9898,-7.9891,-7.9735,-7.9713,-7.9692,-7.9671,-7.9903,-7.9903,-8.0053,-8.0054,-8.0056]}]]